www.pogodaiklimat.ru

Погода и климат >> Архив погоды >> Индонезия >> Sentani Airport


ПОГОДА в Sentani Airport

  • Прогноз погоды в Sentani Airport
  • Монитор погоды в Sentani Airport
  • Климат города

АРХИВ ПОГОДЫ в Sentani Airport

Время (UTC), дата Ветер
(напр.,м/с)
 
Видим.   Явления Облачность Т
(С)
Тd
(С)
f
(%)
Тe
(С)
Тes
(С)
Комфортность P
(гПа)
Po
(гПа)
Тmin
(С)
Tmax
(С)
R
(мм)
R24
(мм)
S
(см)
06 8.08 ЮВ 6 10 км 6/4 360 м
[Cb cap Ac trans Ci fib]
+31.6 +21.4 55 +40 +41 очень
душно
1005.9 996.4
09 8.08 В 2 10 км 9/4 400 м
[Cu med, cong As trans Ci fib]
+28.6 +21.1 64 +36 +36 очень
душно
1007.0 997.5
12 8.08 штиль 0 10 км 4/3 400 м
[Cu med, cong Ac trans Ci sp]
+26.4 +22.2 78 +34 +34 очень
душно
1010.2 1000.6 +33.2
15 8.08 штиль 0 10 км 6/3 400 м
[Cu Sc Ac As Ci sp]
+24.8 +23.4 92 +33 +33 очень
душно
1010.6 1001.0
18 8.08 штиль 0 10 км 6/4 300 м
[Frnb Ac As Ci sp]
+23.8 +22.3 91 +31 +31 очень
душно
1009.6 1000.1
21 8.08 штиль 0 10 км 6/4 300 м
[Frnb Ac trans Ci sp]
+23.8 +22.4 92 +31 +31 очень
душно
1010.6 1001.0
00 9.08 ЮВ 3 10 км 6/4 360 м
[Cu hum Ac trans Ci sp]
+26.1 +24.5 91 +37 +42 очень
душно
1010.5 1000.9 +24.3
03 9.08 ЮВ 4 10 км 6/4 420 м
[Cu hum Ac trans Ci fib]
+31.6 +24.2 65 +44 +51 опасность
перегрева
1009.0 999.4
06 9.08 В 4 10 км 6/3 400 м
[Cu med, cong Ac trans Ci fib]
+33.0 +25.0 63 +47 +50 опасность
перегрева
1006.7 997.2
09 9.08 З 2 10 км зарница {гроза} 6/3 360 м
[Cb calv Ac trans Ci sp]
+28.7 +22.5 69 +38 +38 очень
душно
1007.9 998.3
12 9.08 штиль 0 10 км {гроза} 4/1 400 м
[Cu med, cong Ac trans Ci fib]
+26.4 +22.2 78 +34 +34 очень
душно
1010.5 1001.0 +33.9
15 9.08 З 2 10 км 4/1 400 м
[Cu med, cong Ac trans Ci fib]
+25.1 +22.0 83 +32 +32 очень
душно
1010.7 1001.1
18 9.08 штиль 0 10 км 4/1 360 м
[Cu Sc Ac trans Ci fib]
+24.6 +21.7 84 +31 +31 очень
душно
1009.9 1000.4
21 9.08 С 2 10 км 9/5 300 м
[Frnb Ac trans Ci fib]
+24.1 +21.4 85 +31 +31 очень
душно
1010.5 1001.0
00 10.08 Ю 2 10 км 5/1 420 м
[Cu Sc Ac trans Cs]
+28.5 +25.5 84 +42 +51 опасность
перегрева
1011.5 1002.0 +27.1
03 10.08 З 7 10 км 5/3 400 м
[Cu med, cong Ac trans Ci fib]
+30.2 +24.8 73 +43 +47 опасность
перегрева
1009.6 1000.1
06 10.08 ЮВ 4 10 км 8/3 400 м
[Cu med, cong Ac trans Ci fib]
+31.9 +25.2 68 +46 +49 опасность
перегрева
1007.0 997.4
09 10.08 З 4 10 км 6/4 400 м
[Cu med, cong Ac trans Ci fib]
+28.3 +23.2 74 +38 +38 очень
душно
1008.4 998.8
12 10.08 штиль 0 10 км зарница 6/4 360 м
[Cb calv Ac trans Ci fib]
+26.6 +23.5 83 +36 +36 очень
душно
1011.0 1001.4 +33.3
15 10.08 штиль 0 10 км 8/4 400 м
[Cu med, cong Ac trans Ci sp]
+25.3 +23.0 87 +34 +34 очень
душно
1010.9 1001.4
18 10.08 штиль 0 10 км 8/4 300 м
[Frnb Ac trans Ci sp]
+25.0 +22.7 87 +33 +33 очень
душно
1009.4 999.8
21 10.08 штиль 0 10 км 5/4 300 м
[Frnb Ac trans Ci sp]
+23.9 +22.2 90 +31 +31 очень
душно
1009.8 1000.3
00 11.08 З 2 10 км 5/4 400 м
[Cu hum Ac trans Ci fib]
+28.0 +22.7 73 +37 +44 очень
душно
1010.8 1001.2 +23.7
03 11.08 ЮВ 3 10 км 6/4 400 м
[Cu med, cong Ac trans Ci fib]
+32.6 +20.9 50 +40 +49 очень
душно
1008.3 998.8
06 11.08 В 3 10 км 5/4 400 м
[Cu med, cong Ac trans Ci fib]
+34.2 +20.5 45 +41 +45 опасность
перегрева
1005.2 995.7
09 11.08 З 3 10 км 6/3 400 м
[Cu med, cong Ac trans Ci fib]
+29.0 +23.4 72 +39 +39 очень
душно
1006.9 997.3
12 11.08 СЗ 1 10 км 6/3 400 м
[Cu med, cong Ac trans Ci fib]
+27.1 +23.3 80 +37 +37 очень
душно
1009.5 999.9 +34.3
15 11.08 штиль 0 9000 м 8/3 400 м
[Cu med, cong Ac trans Ci fib]
+26.2 +23.5 85 +36 +36 очень
душно
1009.5 1000.0
18 11.08 штиль 0 9000 м {дождь} 9/4 300 м
[Frnb Ac As Cs]
+23.6 +22.8 95 +31 +31 очень
душно
1008.9 999.4 19
21 11.08 Ю 1 10 км 9/5 300 м
[Frnb Ac As Cs]
+23.9 +22.7 93 +31 +32 очень
душно
1009.7 1000.1
00 12.08 Ю 2 8000 м слабый дождь 10/5 300 м
[Frnb As op]
+24.5 +22.8 90 +32 +33 очень
душно
1010.6 1001.0 +22.3 2
03 12.08 ЮВ 2 10 км 9/4 300 м
[Frnb As op Ci sp]
+26.7 +22.5 78 +35 +42 очень
душно
1009.3 999.7 0.1
06 12.08 В 2 10 км 9/4 330 м
[Frnb As op Ci sp]
+28.0 +22.7 73 +37 +40 очень
душно
1008.0 998.5 0.1
09 12.08 штиль 0 10 км 8/3 360 м
[Cu med, cong Ac trans Ci sp]
+27.0 +23.3 80 +36 +36 очень
душно
1009.1 999.5
12 12.08 СЗ 1 10 км 6/3 360 м
[Cu med, cong Ac trans Ci sp]
+25.8 +23.5 87 +35 +35 очень
душно
1010.8 1001.2 +28.6
15 12.08 штиль 0 10 км 6/3 360 м
[Cu med, cong Ac trans Ci sp]
+24.8 +23.0 90 +33 +33 очень
душно
1010.5 1001.0
18 12.08 З 2 10 км 6/3 300 м
[Frnb Ac As Ci sp]
+23.0 +21.8 93 +31 +31 очень
душно
1009.0 999.5
21 12.08 штиль 0 10 км 6/3 300 м
[Frnb Ac trans Ci sp]
+22.4 +21.4 94 +29 +30 очень
душно
1010.2 1000.6
00 13.08 ЮВ 2 10 км 6/4 400 м
[Cu med, cong Ac trans Ci fib]
+26.4 +25.0 92 +38 +44 очень
душно
1011.8 1002.2 +24.9 0.1
03 13.08 ЮВ 2 10 км 4/3 420 м
[Cu med, cong Ac trans Ci fib]
+31.3 +23.4 63 +42 +55 опасность
перегрева
1009.0 999.5
06 13.08 З 4 10 км 5/3 420 м
[Cu med, cong As op Ci sp]
+32.7 +25.5 66 +47 +51 опасность
перегрева
1006.2 996.7
09 13.08 ЮЗ 3 10 км 6/3 420 м
[Cu med, cong Ac trans Ci sp]
+28.4 +22.4 70 +37 +37 очень
душно
1007.9 998.4
12 13.08 штиль 0 10 км 4/1 400 м
[Cu med, cong Ac trans Ci fib]
+26.0 +22.7 82 +34 +34 очень
душно
1010.4 1000.8 +33.5
15 13.08 штиль 0 10 км 5/3 400 м
[Cu Sc As op Ci fib]
+25.7 +22.6 83 +34 +34 очень
душно
1010.3 1000.7
18 13.08 штиль 0 10 км 4/3 300 м
[Frnb Ac trans Ci fib]
+24.6 +22.3 87 +32 +32 очень
душно
1009.2 999.6
21 13.08 СЗ 1 10 км 6/5 300 м
[Frnb Ac trans Ci fib]
+24.3 +19.6 75 +30 +30 очень
душно
1010.2 1000.6
00 14.08 З 2 10 км 5/3 420 м
[Cu med, cong Ac trans Ci fib]
+24.2 +23.9 98 +33 +41 очень
душно
1010.7 1001.1 +23.5
03 14.08 С 1 10 км 5/3 420 м
[Cu med, cong Ac trans Ci fib]
+31.6 +25.9 72 +47 +61 опасность
перегрева
1008.3 998.7
06 14.08 ЮВ 4 10 км 6/3 420 м
[Cu med, cong Ac trans Ci fib]
+31.3 +25.9 73 +47 +50 опасность
перегрева
1005.7 996.2
09 14.08 З 4 10 км слабый дождь 9/4 360 м
[Cb cap As op Ci sp]
+26.1 +21.5 76 +33 +33 очень
душно
1007.9 998.3 0.0
12 14.08 ЮВ 2 7000 м слабый дождь 9/4 360 м
[Cu med, cong As op Cs]
+25.8 +23.1 85 +34 +34 очень
душно
1010.5 1000.9 +33.9 0.0
15 14.08 штиль 0 10 км 8/4 360 м
[Cu med, cong As op Cs]
+24.7 +22.4 87 +32 +32 очень
душно
1009.7 1000.1
18 14.08 штиль 0 10 км 9/4 300 м
[Frnb As op Ci sp]
+24.3 +22.9 92 +32 +32 очень
душно
1008.5 999.0
21 14.08 штиль 0 10 км 9/4 300 м
[Frnb Ac trans Ci sp]
+24.0 +22.3 90 +31 +31 очень
душно
1009.7 1000.1
00 15.08 Ю 2 10 км 8/3 400 м
[Cu med, cong Ac trans Ci fib]
+28.0 +22.0 70 +36 +42 очень
душно
1009.7 1000.2 +23.6 0.9
03 15.08 Ю 2 10 км 8/4 400 м
[Cu med, cong Ac trans Ci fib]
+31.7 +23.5 62 +43 +51 опасность
перегрева
1007.6 998.0

 

Местоположение метеостанции Sentani Airport (Индонезия): широта -2.58 долгота 140.52 высота над уровнем моря 99 м.

В архиве по умолчанию представлена погода в Sentani Airport за последнюю неделю. Архивные данные за месяц целиком и за предыдущие месяцы, начиная с января 2011 года, Вы можете получить, выбрав интересующий диапазон дат из раскрывающегося списка и нажав кнопку "Ввод!".


*Определитесь, кто Вы:
робот инопланетянин человек

Внимание! Время в таблицах - всемирное. Для получения местного времени необходимо прибавить поправку, которая в Sentani Airport равна 7 ч.

Смотрите также архив погоды в соседних городах и на ближайших метеорологических станциях:

Погода в Jayapura (Индонезия) (21 км)
Погода в Sarmi (Индонезия) (218 км)
Погода в Wamena (Индонезия) (241 км)
Погода в Tanah Merah (Индонезия) (392 км)
Погода в Kokonao (Индонезия) (434 км)
Погода в Serui (Индонезия) (483 км)
Погода в Enarotali (Индонезия) (484 км)
Погода в Biak (Индонезия) (514 км)
Погода в Nabire (Индонезия) (564 км)
Погода в Merauke (Индонезия) (655 км)

Пояснения к столбцам:

Ветер - указаны скорость ветра в м/с - средняя за 10 мин, порывы в срок и между сроками (в фигурных скобках) и направление, откуда дует ветер: С - северный, СВ - северо-восточный, В - восточный, ЮВ - юго-восточный, Ю - южный, ЮЗ - юго-западный, З - западный, СЗ - северо-западный.
Видимость - горизонтальная дальность видимости в метрах или километрах. При видимости от 1 до 10 км при отсутствии осадков обычно наблюдается дымка, при ухудшении видимости до 1 км и менее - туман. В сухую погоду видимость может ухудшаться дымом, пылью или мглою.
Явления - указаны атмосферные явления, наблюдавшиеся в срок или в последний час перед сроком; фигурными скобками обозначены явления, наблюдавшиеся между сроками (за 1-3 часа до срока); квадратными скобками обозначены град или гололедные отложения с указанием их диаметра в мм.
Облачность - указаны через наклонную черту общая и нижняя облачность в баллах и высота нижней границы облаков в метрах; квадратными скобками обозначены формы облаков: Ci - перистые, Cs - перисто-слоистые, Cc - перисто-кучевые, Ac - высококучевые, As - высокослоистые, Sc - слоисто-кучевые, Ns - слоисто-дождевые, Cu - кучевые, Cb - кучево-дождевые. Подробнее классификацию облаков см. в Атласе облаков (PDF).
T - Температура воздуха - температура, измеренная на высоте 2 м над землей.
Td - Температура точки росы - температура, при понижении до которой содержащийся в воздухе водяной пар достигнет насыщения.
f - Относительная влажность воздуха - влажноcть воздуха, измеренная на высоте 2 м над землей.
Te - Эффективная температура - температура, которую ощущает одетый по сезону человек в тени. Характеристика душности погоды. При расчете учитывается влияние влажности воздуха и скорости ветра на теплоощущения человека.
Tes - Эффективная температура на солнце - температура, которую ощущает человек, с поправкой на солнечный нагрев. Характеристика знойности погоды. Зависит от высоты солнца над горизонтом, облачности и скорости ветра. Ночью, в пасмурную погоду, а также при ветре 12 м/с и более поправка равна нулю.
P - Атмосферное давление - приведенное к уровню моря атмосферное давление.
Po - Атмосферное давление - измеренное на уровне метеостанции атмосферное давление.
Tmin - Минимальная температура - минимум температуры воздуха на высоте 2 м над землей.
Tmax - Максимальная температура - максимум температуры воздуха на высоте 2 м над землей.
R - Количество осадков - Количество выпавших осадков за период времени, мм. При наведении курсора мыши на число - период времени, за который выпало указанное количество осадков.
R24 - Количество осадков - Количество выпавших осадков за 24 часа, мм.
S - Снежный покров - Высота снежного покрова, см. При наведении курсора мыши на число - состояние снежного покрова и степень покрытия местности в баллах.